| time (UTC) | temp F | wind direction | speed MPH | gust MPH | rain 1hr in | rain 24hr in | rain mn in | humidity % | barometer mb |
| 20260905154401 | 70 | 342 | 3.0 | 3.0 | 0.00 | 0.00 | 0.00 | 80 | 1017.7 |
| 20260905153856 | 70 | 300 | 6.0 | 8.0 | 0.00 | 0.00 | 0.00 | 82 | 1017.7 |
| 20260905153353 | 70 | 1 | 5.0 | 8.0 | 0.00 | 0.00 | 0.00 | 82 | 1017.7 |
| 20260905152852 | 69 | 334 | 4.0 | 6.0 | 0.00 | 0.00 | 0.00 | 80 | 1017.8 |
| 20260905152351 | 69 | 282 | 5.0 | 9.0 | 0.00 | 0.00 | 0.00 | 81 | 1017.8 |
| 20260905151847 | 68 | 300 | 7.0 | 8.0 | 0.00 | 0.00 | 0.00 | 84 | 1018.0 |
| 20260905151342 | 69 | 318 | 3.0 | 3.0 | 0.00 | 0.00 | 0.00 | 84 | 1018.1 |
| 20260905150837 | 69 | 302 | 3.0 | 5.0 | 0.00 | 0.00 | 0.00 | 84 | 1018.1 |
| 20260905150331 | 69 | 318 | 5.0 | 10.0 | 0.00 | 0.00 | 0.00 | 82 | 1018.1 |
| 20260905145829 | 67 | 295 | 5.0 | 7.0 | 0.00 | 0.00 | 0.00 | 86 | 1018.2 |
| 20260905145328 | 67 | 295 | 5.0 | 7.0 | 0.00 | 0.00 | 0.00 | 86 | 1018.0 |
| 20260905144828 | 67 | 295 | 5.0 | 7.0 | 0.00 | 0.00 | 0.00 | 86 | 1018.0 |
| 20260905144323 | 67 | 332 | 4.0 | 6.0 | 0.00 | 0.00 | 0.00 | 86 | 1018.3 |
| 20260905143822 | 67 | 311 | 3.0 | 3.0 | 0.00 | 0.00 | 0.00 | 86 | 1018.1 |
| 20260905143316 | 67 | 234 | 6.0 | 8.0 | 0.00 | 0.00 | 0.00 | 85 | 1018.0 |
| 20260905142815 | 67 | 234 | 6.0 | 8.0 | 0.00 | 0.00 | 0.00 | 85 | 1017.8 |
| 20260905142309 | 67 | 234 | 6.0 | 8.0 | 0.00 | 0.00 | 0.00 | 85 | 1017.9 |
| 20260905141806 | 67 | 259 | 3.0 | 3.0 | 0.00 | 0.00 | 0.00 | 87 | 1017.9 |
| 20260905141301 | 66 | 286 | 5.0 | 6.0 | 0.00 | 0.00 | 0.00 | 87 | 1018.1 |
| 20260905140756 | 65 | 320 | 7.0 | 9.0 | 0.00 | 0.00 | 0.00 | 88 | 1018.3 |
| 20260905140251 | 65 | 298 | 8.0 | 9.0 | 0.00 | 0.00 | 0.00 | 89 | 1018.2 |
| 20260905135749 | 67 | 20 | 3.0 | 6.0 | 0.00 | 0.00 | 0.00 | 88 | 1018.0 |
| 20260905135245 | 67 | 20 | 3.0 | 8.0 | 0.00 | 0.00 | 0.00 | 88 | 1018.2 |
| 20260905134744 | 67 | 291 | 4.0 | 8.0 | 0.00 | 0.00 | 0.00 | 88 | 1018.2 |
| 20260905134239 | 65 | 358 | 3.0 | 3.0 | 0.00 | 0.00 | 0.00 | 90 | 1018.2 |
| 20260905133733 | 65 | 355 | 5.0 | 7.0 | 0.00 | 0.00 | 0.00 | 91 | 1018.2 |
| 20260905133229 | 65 | 301 | 5.0 | 7.0 | 0.00 | 0.00 | 0.00 | 91 | 1018.1 |
| 20260905132728 | 64 | 27 | 5.0 | 9.0 | 0.00 | 0.00 | 0.00 | 92 | 1018.0 |
| 20260905132224 | 63 | 296 | 7.0 | 8.0 | 0.00 | 0.00 | 0.00 | 93 | 1018.1 |
| 20260905131719 | 63 | 289 | 3.0 | 6.0 | 0.00 | 0.00 | 0.00 | 94 | 1018.2 |
| 20260905131214 | 63 | 289 | 3.0 | 6.0 | 0.00 | 0.00 | 0.00 | 94 | 1018.2 |
| 20260905130713 | 62 | 307 | 3.0 | 3.0 | 0.00 | 0.00 | 0.00 | 94 | 1018.3 |
| 20260905130208 | 62 | 307 | 4.0 | 5.0 | 0.00 | 0.00 | 0.00 | 95 | 1018.4 |
| 20260905125703 | 62 | 307 | 4.0 | 5.0 | 0.00 | 0.00 | 0.00 | 95 | 1018.4 |
| 20260905125158 | 62 | 318 | 3.0 | 3.0 | 0.00 | 0.00 | 0.00 | 95 | 1018.2 |
| 20260905124654 | 62 | 323 | 3.0 | 5.0 | 0.00 | 0.00 | 0.00 | 95 | 1018.2 |
| 20260905124150 | 62 | 323 | 3.0 | 5.0 | 0.00 | 0.00 | 0.00 | 95 | 1018.3 |
| 20260905123645 | 62 | 324 | 3.0 | 3.0 | 0.00 | 0.00 | 0.00 | 95 | 1018.5 |
| 20260905123142 | 62 | 279 | 1.0 | 3.0 | 0.00 | 0.00 | 0.00 | 95 | 1018.1 |
| 20260905122641 | 61 | 305 | 1.0 | 1.0 | 0.00 | 0.00 | 0.00 | 95 | 1018.2 |
| 20260905122137 | 61 | 304 | 2.0 | 2.0 | 0.00 | 0.00 | 0.00 | 95 | 1018.2 |
| 20260905121631 | 61 | 298 | 0.0 | 2.0 | 0.00 | 0.00 | 0.00 | 96 | 1018.3 |
| 20260905121127 | 61 | 308 | 3.0 | 3.0 | 0.00 | 0.00 | 0.00 | 96 | 1018.3 |
| 20260905120625 | 61 | 317 | 3.0 | 3.0 | 0.00 | 0.00 | 0.00 | 96 | 1018.2 |
| 20260905120121 | 61 | 275 | 2.0 | 3.0 | 0.00 | 0.00 | 0.00 | 96 | 1018.0 |
| 20260905115620 | 60 | 290 | 0.0 | 0.0 | 0.00 | 0.00 | 0.00 | 97 | 1018.2 |
| 20260905115115 | 60 | 282 | 0.0 | 0.0 | 0.00 | 0.00 | 0.00 | 97 | 1017.9 |
| 20260905114614 | 60 | 287 | 1.0 | 1.0 | 0.00 | 0.00 | 0.00 | 97 | 1017.7 |
| 20260905114113 | 60 | 287 | 1.0 | 1.0 | 0.00 | 0.00 | 0.00 | 97 | 1017.7 |
| 20260905113608 | 60 | 285 | 1.0 | 2.0 | 0.00 | 0.00 | 0.00 | 97 | 1017.8 |
| 20260905113104 | 59 | 307 | 0.0 | 1.0 | 0.00 | 0.00 | 0.00 | 97 | 1017.6 |
| 20260905112558 | 59 | 279 | 0.0 | 0.0 | 0.00 | 0.00 | 0.00 | 97 | 1017.4 |
| 20260905112054 | 59 | 298 | 0.0 | 0.0 | 0.00 | 0.00 | 0.00 | 97 | 1017.4 |
| 20260905111549 | 58 | 278 | 0.0 | 0.0 | 0.00 | 0.00 | 0.00 | 97 | 1017.4 |
| 20260905111048 | 58 | 278 | 0.0 | 0.0 | 0.00 | 0.00 | 0.00 | 97 | 1017.1 |
| 20260905110547 | 58 | 268 | 0.0 | 0.0 | 0.00 | 0.00 | 0.00 | 97 | 1017.2 |
| 20260905110042 | 58 | 268 | 0.0 | 0.0 | 0.00 | 0.00 | 0.00 | 97 | 1017.3 |
| 20260905105537 | 58 | 268 | 0.0 | 0.0 | 0.00 | 0.00 | 0.00 | 97 | 1017.3 |
| 20260905105036 | 59 | 282 | 0.0 | 1.0 | 0.00 | 0.00 | 0.00 | 97 | 1016.9 |
| 20260905104532 | 59 | 282 | 0.0 | 1.0 | 0.00 | 0.00 | 0.00 | 97 | 1016.9 |
| 20260905104031 | 59 | 282 | 0.0 | 1.0 | 0.00 | 0.00 | 0.00 | 97 | 1016.9 |
| 20260905103527 | 59 | 282 | 0.0 | 1.0 | 0.00 | 0.00 | 0.00 | 97 | 1016.9 |
| 20260905103023 | 59 | 282 | 0.0 | 1.0 | 0.00 | 0.00 | 0.00 | 97 | 1016.9 |
| 20260905102519 | 59 | 282 | 0.0 | 1.0 | 0.00 | 0.00 | 0.00 | 97 | 1016.9 |
| 20260905102015 | 59 | 282 | 0.0 | 1.0 | 0.00 | 0.00 | 0.00 | 97 | 1016.8 |
| 20260905101513 | 59 | 301 | 0.0 | 0.0 | 0.00 | 0.00 | 0.00 | 97 | 1016.6 |
| 20260905101012 | 59 | 346 | 0.0 | 0.0 | 0.00 | 0.00 | 0.00 | 97 | 1016.9 |
| 20260905100508 | 59 | 300 | 0.0 | 0.0 | 0.00 | 0.00 | 0.00 | 97 | 1016.8 |
| 20260905100008 | 59 | 290 | 0.0 | 0.0 | 0.00 | 0.00 | 0.00 | 97 | 1016.8 |
| 20260905095502 | 59 | 284 | 0.0 | 0.0 | 0.00 | 0.00 | 0.00 | 97 | 1016.7 |
| 20260905094957 | 60 | 302 | 0.0 | 1.0 | 0.00 | 0.00 | 0.00 | 97 | 1016.8 |
| 20260905094452 | 60 | 246 | 0.0 | 0.0 | 0.00 | 0.00 | 0.00 | 97 | 1016.7 |
| 20260905093950 | 59 | 283 | 0.0 | 1.0 | 0.00 | 0.00 | 0.00 | 97 | 1016.7 |
| 20260905093446 | 60 | 255 | 0.0 | 0.0 | 0.00 | 0.00 | 0.00 | 97 | 1016.6 |
| 20260905092942 | 60 | 264 | 0.0 | 0.0 | 0.00 | 0.00 | 0.00 | 97 | 1016.6 |
| 20260905092437 | 59 | 302 | 0.0 | 1.0 | 0.00 | 0.00 | 0.00 | 97 | 1016.6 |
| 20260905091932 | 60 | 300 | 0.0 | 1.0 | 0.00 | 0.00 | 0.00 | 96 | 1016.6 |
| 20260905091427 | 60 | 249 | 1.0 | 1.0 | 0.00 | 0.00 | 0.00 | 96 | 1016.5 |
| 20260905090926 | 59 | 291 | 0.0 | 0.0 | 0.00 | 0.00 | 0.00 | 96 | 1016.5 |
| 20260905090422 | 60 | 290 | 0.0 | 0.0 | 0.00 | 0.00 | 0.00 | 96 | 1016.6 |
| 20260905085921 | 60 | 292 | 0.0 | 0.0 | 0.00 | 0.00 | 0.00 | 96 | 1016.6 |
| 20260905085420 | 60 | 291 | 0.0 | 0.0 | 0.00 | 0.00 | 0.00 | 96 | 1016.5 |
| 20260905084917 | 60 | 287 | 0.0 | 0.0 | 0.00 | 0.00 | 0.00 | 96 | 1016.6 |
| 20260905084415 | 60 | 293 | 0.0 | 0.0 | 0.00 | 0.00 | 0.00 | 96 | 1016.4 |
| 20260905083910 | 60 | 291 | 0.0 | 0.0 | 0.00 | 0.00 | 0.00 | 96 | 1016.4 |
| 20260905083407 | 61 | 298 | 0.0 | 1.0 | 0.00 | 0.00 | 0.00 | 96 | 1016.4 |
| 20260905082902 | 61 | 295 | 0.0 | 1.0 | 0.00 | 0.00 | 0.00 | 95 | 1016.7 |
| 20260905082357 | 61 | 305 | 0.0 | 1.0 | 0.00 | 0.00 | 0.00 | 95 | 1016.6 |
| 20260905081847 | 62 | 249 | 1.0 | 1.0 | 0.00 | 0.00 | 0.00 | 95 | 1016.4 |
| 20260905081342 | 62 | 279 | 0.0 | 0.0 | 0.00 | 0.00 | 0.00 | 95 | 1016.4 |
| 20260905080840 | 62 | 301 | 0.0 | 0.0 | 0.00 | 0.00 | 0.00 | 95 | 1016.7 |
| 20260905080335 | 62 | 258 | 0.0 | 0.0 | 0.00 | 0.00 | 0.00 | 95 | 1016.6 |
| 20260905075833 | 62 | 240 | 0.0 | 0.0 | 0.00 | 0.00 | 0.00 | 95 | 1016.6 |
| 20260905075328 | 63 | 286 | 0.0 | 0.0 | 0.00 | 0.00 | 0.00 | 95 | 1016.6 |
| 20260905074827 | 63 | 305 | 1.0 | 1.0 | 0.00 | 0.00 | 0.00 | 95 | 1016.4 |
| 20260905074323 | 63 | 278 | 0.0 | 0.0 | 0.00 | 0.00 | 0.00 | 95 | 1016.6 |
| 20260905073819 | 63 | 278 | 0.0 | 0.0 | 0.00 | 0.00 | 0.00 | 95 | 1016.4 |
| 20260905073313 | 63 | 296 | 0.0 | 0.0 | 0.00 | 0.00 | 0.00 | 95 | 1016.6 |
| 20260905072808 | 63 | 259 | 0.0 | 0.0 | 0.00 | 0.00 | 0.00 | 95 | 1016.7 |
| 20260905072306 | 63 | 255 | 0.0 | 1.0 | 0.00 | 0.00 | 0.00 | 95 | 1016.6 |
| 20260905071759 | 63 | 315 | 0.0 | 1.0 | 0.00 | 0.00 | 0.00 | 95 | 1016.6 |
| 20260905071255 | 63 | 293 | 0.0 | 1.0 | 0.00 | 0.00 | 0.00 | 95 | 1016.6 |
| 20260905070749 | 63 | 278 | 0.0 | 0.0 | 0.00 | 0.00 | 0.00 | 95 | 1016.6 |
| 20260905070246 | 63 | 234 | 1.0 | 1.0 | 0.00 | 0.00 | 0.00 | 95 | 1016.9 |
| 20260905065745 | 63 | 253 | 0.0 | 1.0 | 0.00 | 0.00 | 0.00 | 95 | 1016.9 |
| 20260905065239 | 63 | 277 | 0.0 | 1.0 | 0.00 | 0.00 | 0.00 | 95 | 1016.9 |
| 20260905064734 | 63 | 277 | 0.0 | 0.0 | 0.00 | 0.00 | 0.00 | 95 | 1016.7 |
| 20260905064230 | 63 | 268 | 0.0 | 0.0 | 0.00 | 0.00 | 0.00 | 95 | 1017.0 |
| 20260905063728 | 63 | 260 | 0.0 | 1.0 | 0.00 | 0.00 | 0.00 | 94 | 1016.8 |
| 20260905063224 | 63 | 269 | 0.0 | 1.0 | 0.00 | 0.00 | 0.00 | 94 | 1016.9 |
| 20260905062720 | 63 | 290 | 0.0 | 0.0 | 0.00 | 0.00 | 0.00 | 94 | 1016.8 |
| 20260905062219 | 63 | 282 | 0.0 | 0.0 | 0.00 | 0.00 | 0.00 | 94 | 1016.9 |
| 20260905061714 | 64 | 284 | 0.0 | 0.0 | 0.00 | 0.00 | 0.00 | 94 | 1016.9 |
| 20260905061209 | 64 | 303 | 0.0 | 0.0 | 0.00 | 0.00 | 0.00 | 94 | 1017.0 |
| 20260905060704 | 64 | 293 | 1.0 | 2.0 | 0.00 | 0.00 | 0.00 | 94 | 1017.0 |
| 20260905060201 | 64 | 284 | 0.0 | 0.0 | 0.00 | 0.00 | 0.00 | 93 | 1017.0 |
| 20260905055659 | 64 | 293 | 0.0 | 1.0 | 0.00 | 0.00 | 0.00 | 93 | 1017.1 |
| 20260905055154 | 64 | 257 | 0.0 | 1.0 | 0.00 | 0.00 | 0.00 | 94 | 1017.0 |
| 20260905054649 | 64 | 281 | 0.0 | 2.0 | 0.00 | 0.00 | 0.00 | 94 | 1017.2 |
| 20260905054145 | 64 | 290 | 0.0 | 0.0 | 0.00 | 0.00 | 0.00 | 94 | 1016.9 |
| 20260905053645 | 63 | 277 | 0.0 | 0.0 | 0.00 | 0.00 | 0.00 | 94 | 1017.0 |
| 20260905053140 | 63 | 290 | 1.0 | 1.0 | 0.00 | 0.00 | 0.00 | 94 | 1017.0 |
| 20260905052639 | 63 | 254 | 0.0 | 1.0 | 0.00 | 0.00 | 0.00 | 94 | 1016.8 |
| 20260905052134 | 64 | 269 | 0.0 | 1.0 | 0.00 | 0.00 | 0.00 | 94 | 1016.9 |
| 20260905051629 | 64 | 267 | 0.0 | 1.0 | 0.00 | 0.00 | 0.00 | 93 | 1017.1 |
| 20260905051126 | 64 | 279 | 1.0 | 1.0 | 0.00 | 0.00 | 0.00 | 93 | 1017.2 |
| 20260905050622 | 64 | 281 | 1.0 | 1.0 | 0.00 | 0.00 | 0.00 | 93 | 1017.2 |
| 20260905050119 | 64 | 281 | 0.0 | 0.0 | 0.00 | 0.00 | 0.00 | 93 | 1017.3 |
| 20260905045618 | 64 | 285 | 0.0 | 0.0 | 0.00 | 0.00 | 0.00 | 92 | 1017.4 |
| 20260905045114 | 63 | 222 | 1.0 | 1.0 | 0.00 | 0.00 | 0.00 | 92 | 1017.1 |
| 20260905044613 | 63 | 231 | 1.0 | 2.0 | 0.00 | 0.00 | 0.00 | 93 | 1017.2 |
| 20260905044108 | 63 | 232 | 1.0 | 1.0 | 0.00 | 0.00 | 0.00 | 93 | 1017.3 |
| 20260905043607 | 63 | 240 | 0.0 | 0.0 | 0.00 | 0.00 | 0.00 | 93 | 1017.2 |
| 20260905043103 | 63 | 244 | 0.0 | 0.0 | 0.00 | 0.00 | 0.00 | 93 | 1017.3 |
| 20260905042601 | 63 | 255 | 0.0 | 0.0 | 0.00 | 0.00 | 0.00 | 92 | 1017.1 |
| 20260905042057 | 63 | 277 | 0.0 | 1.0 | 0.00 | 0.00 | 0.00 | 92 | 1017.2 |
| 20260905041552 | 64 | 272 | 0.0 | 1.0 | 0.00 | 0.00 | 0.00 | 91 | 1017.3 |
| 20260905041047 | 64 | 277 | 0.0 | 0.0 | 0.00 | 0.00 | 0.00 | 90 | 1017.4 |
| 20260905040547 | 64 | 289 | 0.0 | 1.0 | 0.00 | 0.00 | 0.00 | 90 | 1017.3 |
| 20260905040045 | 64 | 258 | 0.0 | 0.0 | 0.00 | 0.00 | 0.00 | 90 | 1017.1 |
| 20260905035541 | 64 | 241 | 0.0 | 1.0 | 0.00 | 0.00 | 0.00 | 90 | 1017.3 |
| 20260905035038 | 64 | 274 | 0.0 | 1.0 | 0.00 | 0.00 | 0.00 | 89 | 1017.4 |
| 20260905034534 | 64 | 255 | 0.0 | 1.0 | 0.00 | 0.00 | 0.00 | 89 | 1017.5 |
| 20260905034033 | 64 | 293 | 0.0 | 0.0 | 0.00 | 0.00 | 0.00 | 89 | 1017.7 |
| 20260905033527 | 64 | 276 | 0.0 | 0.0 | 0.00 | 0.00 | 0.00 | 89 | 1017.3 |
| 20260905033023 | 64 | 285 | 0.0 | 1.0 | 0.00 | 0.00 | 0.00 | 89 | 1017.6 |
| 20260905032517 | 64 | 290 | 1.0 | 2.0 | 0.00 | 0.00 | 0.00 | 89 | 1017.2 |
| 20260905032013 | 64 | 280 | 0.0 | 1.0 | 0.00 | 0.00 | 0.00 | 89 | 1017.3 |
| 20260905031508 | 64 | 262 | 0.0 | 1.0 | 0.00 | 0.00 | 0.00 | 89 | 1017.2 |
| 20260905031003 | 64 | 295 | 1.0 | 2.0 | 0.00 | 0.00 | 0.00 | 89 | 1017.3 |
| 20260905030458 | 64 | 238 | 1.0 | 2.0 | 0.00 | 0.00 | 0.00 | 89 | 1017.3 |
| 20260905025957 | 64 | 281 | 0.0 | 1.0 | 0.00 | 0.00 | 0.00 | 89 | 1017.3 |
| 20260905025453 | 64 | 265 | 0.0 | 1.0 | 0.00 | 0.00 | 0.00 | 89 | 1017.5 |
| 20260905024949 | 64 | 285 | 1.0 | 1.0 | 0.00 | 0.00 | 0.00 | 89 | 1017.5 |
| 20260905024444 | 64 | 284 | 0.0 | 1.0 | 0.00 | 0.00 | 0.00 | 89 | 1017.6 |
| 20260905023939 | 63 | 307 | 1.0 | 2.0 | 0.00 | 0.00 | 0.00 | 90 | 1017.5 |
| 20260905023434 | 63 | 275 | 0.0 | 1.0 | 0.00 | 0.00 | 0.00 | 90 | 1017.4 |
| 20260905022933 | 63 | 245 | 0.0 | 3.0 | 0.00 | 0.00 | 0.00 | 90 | 1017.4 |
| 20260905022429 | 63 | 272 | 0.0 | 0.0 | 0.00 | 0.00 | 0.00 | 90 | 1017.5 |
| 20260905021924 | 63 | 249 | 0.0 | 1.0 | 0.00 | 0.00 | 0.00 | 89 | 1017.4 |
| 20260905021424 | 63 | 223 | 1.0 | 1.0 | 0.00 | 0.00 | 0.00 | 88 | 1017.6 |
| 20260905020919 | 64 | 236 | 0.0 | 1.0 | 0.00 | 0.00 | 0.00 | 88 | 1017.7 |
| 20260905020418 | 64 | 231 | 1.0 | 1.0 | 0.00 | 0.00 | 0.00 | 88 | 1017.7 |
| 20260905015918 | 64 | 214 | 1.0 | 1.0 | 0.00 | 0.00 | 0.00 | 87 | 1017.4 |
| 20260905015416 | 64 | 272 | 0.0 | 1.0 | 0.00 | 0.00 | 0.00 | 88 | 1017.6 |
| 20260905014916 | 64 | 264 | 1.0 | 1.0 | 0.00 | 0.00 | 0.00 | 88 | 1017.4 |
| 20260905014411 | 64 | 298 | 1.0 | 2.0 | 0.00 | 0.00 | 0.00 | 88 | 1017.6 |
| 20260905013906 | 63 | 244 | 0.0 | 1.0 | 0.00 | 0.00 | 0.00 | 88 | 1017.6 |
| 20260905013403 | 63 | 265 | 0.0 | 1.0 | 0.00 | 0.00 | 0.00 | 88 | 1017.8 |
| 20260905012858 | 64 | 251 | 0.0 | 1.0 | 0.00 | 0.00 | 0.00 | 87 | 1017.7 |
| 20260905012353 | 64 | 266 | 0.0 | 1.0 | 0.00 | 0.00 | 0.00 | 87 | 1017.6 |
| 20260905011850 | 64 | 277 | 0.0 | 0.0 | 0.00 | 0.00 | 0.00 | 86 | 1017.5 |
| 20260905011345 | 64 | 263 | 0.0 | 0.0 | 0.00 | 0.00 | 0.00 | 85 | 1017.7 |
| 20260905010840 | 65 | 260 | 0.0 | 0.0 | 0.00 | 0.00 | 0.00 | 84 | 1017.7 |
| 20260905010330 | 65 | 258 | 0.0 | 1.0 | 0.00 | 0.00 | 0.00 | 84 | 1017.6 |
| 20260905005826 | 65 | 250 | 0.0 | 1.0 | 0.00 | 0.00 | 0.00 | 83 | 1017.3 |
| 20260905005322 | 66 | 284 | 0.0 | 1.0 | 0.00 | 0.00 | 0.00 | 82 | 1017.4 |
| 20260905004816 | 66 | 249 | 0.0 | 1.0 | 0.00 | 0.00 | 0.00 | 81 | 1017.3 |
| 20260905004311 | 66 | 238 | 0.0 | 0.0 | 0.00 | 0.00 | 0.00 | 81 | 1017.5 |
| 20260905003806 | 66 | 271 | 0.0 | 1.0 | 0.00 | 0.00 | 0.00 | 81 | 1017.5 |
| 20260905003302 | 67 | 274 | 1.0 | 2.0 | 0.00 | 0.00 | 0.00 | 81 | 1017.6 |
| 20260905002757 | 67 | 254 | 0.0 | 1.0 | 0.00 | 0.00 | 0.00 | 80 | 1017.4 |
| 20260905002257 | 67 | 252 | 1.0 | 1.0 | 0.00 | 0.00 | 0.00 | 80 | 1017.4 |
| 20260905001752 | 67 | 258 | 0.0 | 1.0 | 0.00 | 0.00 | 0.00 | 79 | 1017.1 |
| 20260905001252 | 67 | 228 | 2.0 | 3.0 | 0.00 | 0.00 | 0.00 | 79 | 1017.3 |
| 20260905000747 | 67 | 293 | 0.0 | 1.0 | 0.00 | 0.00 | 0.00 | 78 | 1017.1 |
| 20260905000243 | 67 | 264 | 0.0 | 1.0 | 0.00 | 0.00 | 0.00 | 78 | 1017.3 |
| 20260904235738 | 68 | 277 | 0.0 | 1.0 | 0.00 | 0.00 | 0.00 | 77 | 1017.1 |
| 20260904235232 | 68 | 297 | 0.0 | 1.0 | 0.00 | 0.00 | 0.00 | 77 | 1017.2 |
| 20260904234726 | 68 | 300 | 1.0 | 1.0 | 0.00 | 0.00 | 0.00 | 77 | 1017.0 |
| 20260904234222 | 68 | 262 | 1.0 | 1.0 | 0.00 | 0.00 | 0.00 | 77 | 1017.2 |
| 20260904233718 | 68 | 235 | 3.0 | 5.0 | 0.00 | 0.00 | 0.00 | 76 | 1017.0 |
| 20260904233214 | 68 | 245 | 2.0 | 3.0 | 0.00 | 0.00 | 0.00 | 76 | 1016.9 |
| 20260904232711 | 68 | 294 | 1.0 | 2.0 | 0.00 | 0.00 | 0.00 | 75 | 1016.8 |
| 20260904232207 | 69 | 294 | 4.0 | 5.0 | 0.00 | 0.00 | 0.00 | 75 | 1016.9 |
| 20260904231701 | 69 | 308 | 5.0 | 6.0 | 0.00 | 0.00 | 0.00 | 74 | 1016.7 |
| 20260904231156 | 69 | 306 | 4.0 | 6.0 | 0.00 | 0.00 | 0.00 | 74 | 1016.9 |
| 20260904230651 | 70 | 323 | 2.0 | 3.0 | 0.00 | 0.00 | 0.00 | 75 | 1016.9 |
| 20260904230146 | 70 | 299 | 3.0 | 5.0 | 0.00 | 0.00 | 0.00 | 74 | 1016.8 |
| 20260904225644 | 71 | 281 | 3.0 | 3.0 | 0.00 | 0.00 | 0.00 | 74 | 1016.7 |
| 20260904225139 | 72 | 273 | 2.0 | 5.0 | 0.00 | 0.00 | 0.00 | 71 | 1016.7 |
| 20260904224633 | 72 | 309 | 2.0 | 7.0 | 0.00 | 0.00 | 0.00 | 71 | 1016.8 |
| 20260904224128 | 72 | 339 | 5.0 | 7.0 | 0.00 | 0.00 | 0.00 | 72 | 1016.9 |
| 20260904223627 | 73 | 319 | 4.0 | 6.0 | 0.00 | 0.00 | 0.00 | 70 | 1016.8 |
| 20260904223122 | 73 | 300 | 3.0 | 3.0 | 0.00 | 0.00 | 0.00 | 70 | 1016.6 |
| 20260904222619 | 73 | 287 | 1.0 | 5.0 | 0.00 | 0.00 | 0.00 | 69 | 1016.7 |
| 20260904222113 | 73 | 288 | 1.0 | 9.0 | 0.00 | 0.00 | 0.00 | 67 | 1016.5 |
| 20260904221608 | 73 | 308 | 4.0 | 9.0 | 0.00 | 0.00 | 0.00 | 66 | 1016.5 |
| 20260904221107 | 73 | 290 | 4.0 | 7.0 | 0.00 | 0.00 | 0.00 | 66 | 1016.4 |
| 20260904220602 | 74 | 331 | 5.0 | 8.0 | 0.00 | 0.00 | 0.00 | 65 | 1016.5 |
| 20260904220058 | 74 | 312 | 4.0 | 8.0 | 0.00 | 0.00 | 0.00 | 66 | 1016.5 |
| 20260904215558 | 74 | 346 | 6.0 | 8.0 | 0.00 | 0.00 | 0.00 | 65 | 1016.4 |
| 20260904215054 | 75 | 317 | 7.0 | 10.0 | 0.00 | 0.00 | 0.00 | 64 | 1016.3 |
| 20260904214549 | 75 | 290 | 8.0 | 13.0 | 0.00 | 0.00 | 0.00 | 63 | 1016.5 |
| 20260904214044 | 75 | 321 | 7.0 | 10.0 | 0.00 | 0.00 | 0.00 | 64 | 1016.6 |
| 20260904213542 | 75 | 297 | 8.0 | 14.0 | 0.00 | 0.00 | 0.00 | 63 | 1016.2 |
| 20260904213039 | 75 | 304 | 7.0 | 10.0 | 0.00 | 0.00 | 0.00 | 64 | 1016.4 |
| 20260904212538 | 75 | 295 | 7.0 | 11.0 | 0.00 | 0.00 | 0.00 | 63 | 1016.4 |
| 20260904212034 | 75 | 339 | 6.0 | 13.0 | 0.00 | 0.00 | 0.00 | 63 | 1016.5 |
| 20260904211533 | 75 | 288 | 7.0 | 13.0 | 0.00 | 0.00 | 0.00 | 63 | 1016.2 |
| 20260904211029 | 75 | 293 | 6.0 | 14.0 | 0.00 | 0.00 | 0.00 | 63 | 1016.4 |
| 20260904210528 | 76 | 305 | 6.0 | 13.0 | 0.00 | 0.00 | 0.00 | 63 | 1016.4 |
| 20260904210025 | 76 | 326 | 9.0 | 15.0 | 0.00 | 0.00 | 0.00 | 63 | 1016.4 |
| 20260904205520 | 76 | 300 | 9.0 | 10.0 | 0.00 | 0.00 | 0.00 | 64 | 1016.5 |
| 20260904205017 | 76 | 255 | 3.0 | 6.0 | 0.00 | 0.00 | 0.00 | 66 | 1016.5 |
| 20260904204512 | 76 | 290 | 7.0 | 10.0 | 0.00 | 0.00 | 0.00 | 64 | 1016.8 |
| 20260904204008 | 76 | 261 | 5.0 | 10.0 | 0.00 | 0.00 | 0.00 | 65 | 1016.7 |
| 20260904203504 | 75 | 271 | 7.0 | 11.0 | 0.00 | 0.00 | 0.00 | 65 | 1016.8 |
| 20260904203000 | 75 | 270 | 12.0 | 15.0 | 0.00 | 0.00 | 0.00 | 64 | 1016.7 |
| 20260904202455 | 75 | 295 | 7.0 | 18.0 | 0.00 | 0.00 | 0.00 | 64 | 1016.7 |
| 20260904201951 | 76 | 280 | 4.0 | 7.0 | 0.00 | 0.00 | 0.00 | 65 | 1016.6 |
| 20260904201446 | 76 | 301 | 6.0 | 14.0 | 0.00 | 0.00 | 0.00 | 64 | 1016.6 |
| 20260904200942 | 77 | 306 | 5.0 | 8.0 | 0.00 | 0.00 | 0.00 | 66 | 1016.7 |
| 20260904200440 | 76 | 342 | 7.0 | 9.0 | 0.00 | 0.00 | 0.00 | 64 | 1016.8 |
| 20260904195935 | 76 | 295 | 6.0 | 14.0 | 0.00 | 0.00 | 0.00 | 64 | 1016.5 |
| 20260904195433 | 76 | 270 | 7.0 | 16.0 | 0.00 | 0.00 | 0.00 | 63 | 1016.7 |
| 20260904194928 | 77 | 282 | 8.0 | 9.0 | 0.00 | 0.00 | 0.00 | 63 | 1016.6 |
| 20260904194427 | 77 | 295 | 3.0 | 7.0 | 0.00 | 0.00 | 0.00 | 64 | 1016.5 |
| 20260904193923 | 77 | 309 | 6.0 | 8.0 | 0.00 | 0.00 | 0.00 | 65 | 1016.8 |
| 20260904193418 | 77 | 280 | 7.0 | 8.0 | 0.00 | 0.00 | 0.00 | 63 | 1016.8 |
| 20260904192914 | 77 | 338 | 6.0 | 9.0 | 0.00 | 0.00 | 0.00 | 64 | 1016.8 |
| 20260904192409 | 78 | 282 | 6.0 | 11.0 | 0.00 | 0.00 | 0.00 | 63 | 1016.8 |
| 20260904191905 | 78 | 284 | 4.0 | 5.0 | 0.00 | 0.00 | 0.00 | 66 | 1017.0 |
| 20260904191401 | 77 | 279 | 5.0 | 13.0 | 0.00 | 0.00 | 0.00 | 64 | 1016.5 |
| 20260904190857 | 77 | 324 | 3.0 | 9.0 | 0.00 | 0.00 | 0.00 | 64 | 1016.9 |
| 20260904190352 | 78 | 305 | 8.0 | 13.0 | 0.00 | 0.00 | 0.00 | 63 | 1016.9 |
| 20260904185849 | 77 | 230 | 5.0 | 13.0 | 0.00 | 0.00 | 0.00 | 65 | 1016.9 |
| 20260904185344 | 77 | 319 | 7.0 | 11.0 | 0.00 | 0.00 | 0.00 | 66 | 1016.9 |
| 20260904184843 | 77 | 314 | 7.0 | 10.0 | 0.00 | 0.00 | 0.00 | 65 | 1016.8 |
| 20260904184339 | 76 | 334 | 5.0 | 7.0 | 0.00 | 0.00 | 0.00 | 65 | 1017.1 |
| 20260904183834 | 77 | 311 | 4.0 | 9.0 | 0.00 | 0.00 | 0.00 | 68 | 1017.0 |
| 20260904183329 | 78 | 310 | 8.0 | 14.0 | 0.00 | 0.00 | 0.00 | 66 | 1017.1 |
| 20260904182824 | 77 | 13 | 9.0 | 11.0 | 0.00 | 0.00 | 0.00 | 66 | 1017.0 |
| 20260904182319 | 77 | 320 | 7.0 | 9.0 | 0.00 | 0.00 | 0.00 | 67 | 1017.1 |
| 20260904181815 | 77 | 279 | 10.0 | 16.0 | 0.00 | 0.00 | 0.00 | 66 | 1017.2 |
| 20260904181314 | 77 | 335 | 8.0 | 13.0 | 0.00 | 0.00 | 0.00 | 67 | 1017.1 |
| 20260904180810 | 78 | 307 | 8.0 | 17.0 | 0.00 | 0.00 | 0.00 | 66 | 1017.2 |
| 20260904180305 | 77 | 271 | 5.0 | 10.0 | 0.00 | 0.00 | 0.00 | 68 | 1017.3 |
| 20260904175804 | 77 | 310 | 6.0 | 10.0 | 0.00 | 0.00 | 0.00 | 67 | 1017.2 |
| 20260904175305 | 77 | 295 | 7.0 | 10.0 | 0.00 | 0.00 | 0.00 | 70 | 1017.2 |
| 20260904174758 | 77 | 328 | 5.0 | 7.0 | 0.00 | 0.00 | 0.00 | 69 | 1017.3 |
| 20260904174254 | 77 | 283 | 8.0 | 13.0 | 0.00 | 0.00 | 0.00 | 70 | 1017.4 |
| 20260904173749 | 77 | 308 | 7.0 | 9.0 | 0.00 | 0.00 | 0.00 | 71 | 1017.4 |
| 20260904173244 | 77 | 265 | 3.0 | 8.0 | 0.00 | 0.00 | 0.00 | 73 | 1017.6 |
| 20260904172741 | 76 | 9 | 7.0 | 9.0 | 0.00 | 0.00 | 0.00 | 73 | 1017.7 |
| 20260904172239 | 76 | 319 | 4.0 | 11.0 | 0.00 | 0.00 | 0.00 | 72 | 1017.6 |
| 20260904171734 | 76 | 320 | 5.0 | 8.0 | 0.00 | 0.00 | 0.00 | 74 | 1017.9 |
| 20260904171229 | 75 | 347 | 4.0 | 10.0 | 0.00 | 0.00 | 0.00 | 76 | 1017.9 |
| 20260904170725 | 73 | 321 | 3.0 | 9.0 | 0.00 | 0.00 | 0.00 | 76 | 1018.0 |
| 20260904170221 | 74 | 304 | 3.0 | 8.0 | 0.00 | 0.00 | 0.00 | 75 | 1017.7 |
| 20260904165720 | 74 | 307 | 5.0 | 8.0 | 0.00 | 0.00 | 0.00 | 76 | 1017.9 |
| 20260904165215 | 75 | 298 | 7.0 | 9.0 | 0.00 | 0.00 | 0.00 | 74 | 1017.5 |
| 20260904164709 | 75 | 223 | 3.0 | 10.0 | 0.00 | 0.00 | 0.00 | 71 | 1017.6 |
| 20260904164204 | 75 | 305 | 7.0 | 8.0 | 0.00 | 0.00 | 0.00 | 73 | 1017.9 |
| 20260904163700 | 75 | 302 | 4.0 | 7.0 | 0.00 | 0.00 | 0.00 | 73 | 1017.6 |
| 20260904163155 | 76 | 333 | 3.0 | 7.0 | 0.00 | 0.00 | 0.00 | 74 | 1017.7 |
| 20260904162654 | 76 | 356 | 5.0 | 8.0 | 0.00 | 0.00 | 0.00 | 72 | 1017.8 |
| 20260904162149 | 75 | 300 | 5.0 | 7.0 | 0.00 | 0.00 | 0.00 | 72 | 1017.9 |
| 20260904161645 | 76 | 9 | 7.0 | 8.0 | 0.00 | 0.00 | 0.00 | 71 | 1017.9 |
| 20260904161140 | 75 | 339 | 4.0 | 5.0 | 0.00 | 0.00 | 0.00 | 76 | 1017.9 |
| 20260904160636 | 74 | 281 | 3.0 | 7.0 | 0.00 | 0.00 | 0.00 | 75 | 1018.1 |
| 20260904160131 | 75 | 288 | 5.0 | 10.0 | 0.00 | 0.00 | 0.00 | 75 | 1018.0 |
| 20260904155626 | 75 | 240 | 6.0 | 9.0 | 0.00 | 0.00 | 0.00 | 75 | 1018.2 |
| 20260904155120 | 75 | 321 | 7.0 | 8.0 | 0.00 | 0.00 | 0.00 | 76 | 1018.1 |